sat.trackr.live / text

‹ back to catalog

GSAT0212 (GALILEO 16)

NORAD 41860 · 2016-069B

PAYLOAD ACTIVE UNKNOWN

§ Identity

Operator
Country
ESA
Launch date
2016-11-17
Launch site
FRGUI
Launch vehicle
Mass (kg)
RCS (m²)
2.79

Purposes: earth_obs, nav

External: N2YO · Heavens-Above · Gunter

§ Orbital elements

Epoch: 2026-05-24T17:19:41.416032Z

Period
844.70 min
Inclination
55.4828°
Eccentricity
0.0004738
Mean motion
1.70473926 rev/d
Perigee alt
23,208.2 km
Apogee alt
23,236.2 km
Semi-major
29,600.3 km
B*
0.0000e+0
RAAN
101.7300°
Arg perigee
349.6187°
Mean anomaly
10.3311°
Rev number
5,925

§ Raw data

GSAT0212 (GALILEO 16)1 41860U 16069B   26144.72200713  .00000014  00000+0  00000+0 0  99932 41860  55.4828 101.7300 0004738 349.6187  10.3311  1.70473926 59254

JSON: /api/v1/satellites/41860 · /tle

For live sub-satellite position, see the globe view (requires WebGL).

§ Visibility from observer

Set your observer location to see the next 7 days of passes ≥ 10°. The values pass through the URL so the page stays shareable.

No JS? Fill the form by hand. The geolocation button needs JavaScript.